www.pogodaiklimat.ru

Погода и климат >> Архив погоды >> Украина >> Кирилловка


ПОГОДА в Кирилловке

  • Прогноз погоды в Кирилловке
  • Монитор погоды в Кирилловке

АРХИВ ПОГОДЫ в Кирилловке

Время (UTC), дата Ветер
(напр.,м/с)
 
Видим.   Явления Облачность Т
(С)
Тd
(С)
f
(%)
Тe
(С)
Тes
(С)
Комфортность P
(гПа)
Po
(гПа)
Тmin
(С)
Tmax
(С)
R
(мм)
R24
(мм)
S
(см)
18 18.06 штиль 0 14 км ясно +23.7 +15.2 59 +27 +27 жарко 1012.0 986.7 +30.0
21 18.06 штиль 0 10 км ясно +19.8 +14.4 71 +22 +22 комфорт 1014.0 988.3
00 19.06 штиль 0 10 км ясно +16.4 +12.2 76 +16 +16 1014.0 988.0
03 19.06 С 1 13 км ясно +19.5 +13.0 66 +22 +23 комфорт 1013.0 987.3
06 19.06 С 1 15 км ясно +27.6 +14.6 45 +30 +41 жарко 1012.0 987.0 +16.4
09 19.06 С 1 15 км 8/8 600 м
[Sc]
+29.1 +14.9 42 +32 +32 душно 1014.0 989.1
12 19.06 С 1 15 км 8/8 600 м
[Cu med, cong]
+30.8 +15.8 40 +33 +37 душно 1010.9 986.3
15 19.06 штиль 0 14 км в посл. час гроза 8/6 600 м
[Cb calv Ci fib]
+27.5 +18.2 57 +32 +32 очень
душно
1011.0 986.1
18 19.06 штиль 0 13 км {гроза} 6/3 600 м
[Sc Ci fib]
+25.0 +19.1 70 +30 +30 душно 1011.0 985.9 +31.0
21 19.06 штиль 0 10 км 4/0
[Ac lent Ci fib]
+20.7 +17.3 81 +24 +24 комфорт 1012.0 986.5
00 20.06 штиль 0 10 км ясно +18.6 +16.2 86 +19 +19 1012.0 986.3
03 20.06 штиль 0 12 км 1/0
[Ac cast]
+19.0 +16.6 86 +20 +22 1013.0 987.3
06 20.06 В 1 14 км ясно +26.0 +17.1 58 +30 +41 душно 1012.0 986.9 +18.6
09 20.06 СВ 1 15 км 3/3 600 м
[Cu med, cong]
+29.6 +14.5 40 +32 +47 душно 1012.0 987.2
12 20.06 СВ 1 16 км 4/4 600 м
[Cu med, cong]
+31.0 +11.9 31 +31 +43 жарко 1011.0 986.3
15 20.06 СВ 1 16 км 1/1 600 м
[Cu hum]
+30.2 +12.6 34 +31 +35 жарко 1011.0 986.2
18 20.06 штиль 0 14 км ясно +25.6 +13.4 47 +28 +28 жарко 1012.0 986.8 +31.5
21 20.06 штиль 0 10 км 3/0
[Ac cast]
+21.6 +12.4 56 +24 +24 комфорт 1013.0 987.5
00 21.06 штиль 0 10 км ясно +19.2 +11.5 61 +20 +20 1013.0 987.2
03 21.06 штиль 0 13 км 3/0
[Ac lent]
+18.8 +12.1 65 +19 +20 1014.0 988.2
06 21.06 СВ 1 15 км 3/0
[Ac cast]
+26.9 +14.6 47 +29 +37 жарко 1014.0 988.9 +18.8
09 21.06 В 1 16 км ясно +32.2 +13.4 32 +33 +55 опасность
солнечного
удара
1013.0 988.3
12 21.06 СВ 1 16 км 4/4 600 м
[Cu hum]
+33.2 +12.2 28 +33 +45 жарко 1013.0 988.4
15 21.06 В 1 16 км 3/3 600 м
[Cu hum]
+31.8 +12.6 31 +32 +35 жарко 1012.0 987.3
18 21.06 СВ 1 14 км ясно +27.4 +14.1 44 +30 +30 жарко 1013.0 988.0 +33.5
21 21.06 штиль 0 10 км ясно +21.2 +13.9 63 +24 +24 комфорт 1014.0 988.4
00 22.06 штиль 0 10 км ясно +19.8 +13.3 66 +21 +21 комфорт 1015.0 989.3
03 22.06 штиль 0 13 км 4/0
[Ac cast]
+19.8 +12.8 64 +21 +22 комфорт 1015.0 989.2
06 22.06 В 1 15 км 8/0
[Ac lent Ci]
+27.0 +14.0 45 +29 +29 жарко 1014.0 988.9 +19.8
09 22.06 ЮВ 1 16 км 6/3 600 м
[Cu hum Ci]
+33.3 +12.8 29 +34 +42 очень
жарко
1014.0 989.4
12 22.06 В 1 16 км 9/4 600 м
[Sc Ac und Ci]
+30.4 +11.4 31 +31 +31 жарко 1015.0 990.1
15 22.06 СВ 1 15 км 10/0
[Ac As]
+29.3 +13.9 39 +31 +31 жарко 1014.0 989.1
18 22.06 штиль 0 14 км 9/0
[Ac und]
+25.1 +14.8 53 +28 +28 жарко 1015.0 989.7 +33.4
21 22.06 СВ 1 10 км 10/10 600 м
[Sc]
+25.3 +13.5 48 +27 +27 жарко 1013.0 987.8
00 23.06 С 9 10 км 10/6 600 м
[Sc Ac und]
+25.2 +13.4 48 +27 +27 жарко 1013.0 987.8
03 23.06 СВ 1 13 км 10/0
[Ac und]
+25.1 +13.0 47 +27 +27 жарко 1013.0 987.8
06 23.06 ЮВ 1 14 км 10/10 600 м
[Cb calv]
+24.9 +12.8 47 +27 +27 жарко 1014.0 988.7 +24.9
09 23.06 В 1 14 км 10/0
[Ac As]
+25.6 +17.2 60 +30 +30 душно 1014.0 988.8
12 23.06 СВ 1 13 км в посл. час ливневой дождь 10/10 600 м
[Sc]
+23.7 +18.8 74 +28 +28 душно 1014.0 988.7 1
15 23.06 С 1 14 км 10/6 600 м
[Sc Ac und]
+27.8 +18.5 57 +33 +33 очень
душно
1013.0 988.0
18 23.06 штиль 0 13 км 10/10 600 м
[Sc]
+24.5 +18.0 67 +29 +29 душно 1013.0 987.8 +27.9 1
21 23.06 штиль 0 4000 м слаб. ливневой дождь 10/10 300 м
[Cb calv]
+20.9 +19.4 91 +25 +25 комфорт 1014.0 988.4
00 24.06 штиль 0 4000 м дымка {ливн. осадки} 10/10 300 м
[Cb calv]
+19.5 +18.3 93 +22 +22 комфорт 1014.0 988.3 1
03 24.06 С 1 12 км в посл. час ливневой дождь 9/8 300 м
[Cb calv Ci fib]
+20.7 +18.1 85 +26 +26 душно 1012.0 986.5
06 24.06 СВ 1 13 км {ливн. осадки} 10/0
[Ac As]
+22.8 +18.3 76 +28 +28 душно 1013.0 987.6 +19.5 1
09 24.06 СВ 1 14 км 8/0
[Ac As]
+25.8 +18.0 62 +30 +30 душно 1014.0 988.8
12 24.06 СВ 1 15 км 8/0
[Ac cast]
+29.2 +16.4 46 +33 +33 очень
душно
1013.0 988.1
15 24.06 ЮВ 1 15 км гроза без осадков 8/8 600 м
[Cb calv]
+28.4 +18.5 55 +33 +33 очень
душно
1013.0 988.1
18 24.06 С 1 13 км {гроза} 8/4 600 м
[Cb calv Ac cast Ci fib]
+23.6 +17.8 70 +28 +28 душно 1015.0 989.6 +29.3
21 24.06 штиль 0 10 км 10/0
[Ac As]
+22.0 +18.2 79 +27 +27 душно 1016.0 990.5
00 25.06 штиль 0 10 км ясно +21.3 +17.5 79 +25 +25 комфорт 1016.0 990.4
03 25.06 СЗ 1 12 км 8/0
[Ac und]
+20.7 +16.5 77 +25 +25 комфорт 1016.0 990.3
06 25.06 СЗ 1 15 км 6/0
[Ac und]
+25.8 +15.2 52 +29 +33 душно 1017.0 991.7 +20.7
09 25.06 С 2 15 км 9/0
[Ac As]
+24.8 +16.8 61 +28 +28 жарко 1018.0 992.6
12 25.06 С 2 15 км 8/0
[Cc]
+28.5 +17.4 51 +33 +33 очень
душно
1018.0 993.0
15 25.06 С 1 15 км 9/0
[Cc]
+28.0 +16.0 48 +31 +31 душно 1018.0 992.9

 

Местоположение метеостанции Кирилловка (Запорожская область, Украина): широта 47.33 долгота 36.33 высота над уровнем моря 221 м.

В архиве по умолчанию представлена погода в Кирилловке за последнюю неделю. Архивные данные за месяц целиком и за предыдущие месяцы, начиная с января 2011 года, Вы можете получить, выбрав интересующий диапазон дат из раскрывающегося списка и нажав кнопку "Ввод!".


*Определитесь, кто Вы:
робот инопланетянин человек

Внимание! Время в таблицах - всемирное. Для получения местного времени необходимо прибавить поправку, которая равна 2 ч.

Смотрите также архив погоды в соседних городах и на ближайших метеорологических станциях:

Погода в Гуляйполе (Запорожская область, Украина) (38 км)
Погода в Бердянске (Запорожская область, Украина) (73 км)
Погода в Пришибе (Запорожская область, Украина) (76 км)
Погода в Ботиево (Запорожская область, Украина) (81 км)
Погода в Волновахе (Донецкая область, Украина) (83 км)
Погода в Чаплино (Днепропетровская область, Украина) (89 км)
Погода в Мелитополе (Запорожская область, Украина) (92 км)
Погода в Мариуполе (Донецкая область, Украина) (95 км)
Погода в Запорожье (Запорожская область, Украина) (111 км)
Погода в Должанке (Краснодарский край, Россия) (128 км)

Пояснения к столбцам:

Ветер - указаны скорость ветра в м/с - средняя за 10 мин, порывы в срок и между сроками (в фигурных скобках) и направление, откуда дует ветер: С - северный, СВ - северо-восточный, В - восточный, ЮВ - юго-восточный, Ю - южный, ЮЗ - юго-западный, З - западный, СЗ - северо-западный.
Видимость - горизонтальная дальность видимости в метрах или километрах. При видимости от 1 до 10 км при отсутствии осадков обычно наблюдается дымка, при ухудшении видимости до 1 км и менее - туман. В сухую погоду видимость может ухудшаться дымом, пылью или мглою.
Явления - указаны атмосферные явления, наблюдавшиеся в срок или в последний час перед сроком; фигурными скобками обозначены явления, наблюдавшиеся между сроками (за 1-3 часа до срока); квадратными скобками обозначены град или гололедные отложения с указанием их диаметра в мм.
Облачность - указаны через наклонную черту общая и нижняя облачность в баллах и высота нижней границы облаков в метрах; квадратными скобками обозначены формы облаков: Ci - перистые, Cs - перисто-слоистые, Cc - перисто-кучевые, Ac - высококучевые, As - высокослоистые, Sc - слоисто-кучевые, Ns - слоисто-дождевые, Cu - кучевые, Cb - кучево-дождевые. Подробнее классификацию облаков см. в Атласе облаков (PDF).
T - Температура воздуха - температура, измеренная на высоте 2 м над землей.
Td - Температура точки росы - температура, при понижении до которой содержащийся в воздухе водяной пар достигнет насыщения.
f - Относительная влажность воздуха - влажноcть воздуха, измеренная на высоте 2 м над землей.
Te - Эффективная температура - температура, которую ощущает одетый по сезону человек в тени. Характеристика душности погоды. При расчете учитывается влияние влажности воздуха и скорости ветра на теплоощущения человека.
Tes - Эффективная температура на солнце - температура, которую ощущает человек, с поправкой на солнечный нагрев. Характеристика знойности погоды. Зависит от высоты солнца над горизонтом, облачности и скорости ветра. Ночью, в пасмурную погоду, а также при ветре 12 м/с и более поправка равна нулю.
P - Атмосферное давление - приведенное к уровню моря атмосферное давление.
Po - Атмосферное давление - измеренное на уровне метеостанции атмосферное давление.
Tmin - Минимальная температура - минимум температуры воздуха на высоте 2 м над землей.
Tmax - Максимальная температура - максимум температуры воздуха на высоте 2 м над землей.
R - Количество осадков - Количество выпавших осадков за период времени, мм. При наведении курсора мыши на число - период времени, за который выпало указанное количество осадков.
R24 - Количество осадков - Количество выпавших осадков за 24 часа, мм.
S - Снежный покров - Высота снежного покрова, см. При наведении курсора мыши на число - состояние снежного покрова и степень покрытия местности в баллах.